This demonstration page uses our WeatherBlox Daily Observations layout. Learn more.

Left ArrowRight Arrow

Hourly Observations for June 20, 2016

Temp ( °F °C ) Dew Point ( °F °C ) Humidity (%) Winds ( mph kmh ) Pressure ( in mb ) Visibility ( mi km ) Precip ( " mm )
12:53 am 00:53 Clear 65 18.3 50 10 59 59 NNW 5 7 30.00 1016 10 16 0.00 0.00
1:53 am 01:53 Clear 63 17.2 49 9.4 60 60 NW 5 7 30.00 1016 10 16 0.00 0.00
2:53 am 02:53 Clear 63 17.2 49 9.4 60 60 NNW 5 7 30.00 1016 10 16 0.00 0.00
3:53 am 03:53 Clear 62 16.7 49 9.4 62 62 NNW 5 7 30.00 1016 10 16 0.00 0.00
4:53 am 04:53 Clear 60 15.6 49 9.4 67 67 NNW 5 7 30.01 1016 10 16 0.00 0.00
5:53 am 05:53 Sunny 60 15.6 48 8.9 65 65 NW 6 9 30.02 1017 10 16 0.00 0.00
6:53 am 06:53 Sunny 62 16.7 51 10.6 67 67 N 3 6 30.02 1017 10 16 0.00 0.00
7:53 am 07:53 Sunny 69 20.6 48 8.9 47 47 N 7 11 30.03 1017 10 16 0.00 0.00
8:53 am 08:53 Sunny 74 23.3 48 8.9 40 40 N 6 9 30.03 1017 10 16 0.00 0.00
9:53 am 09:53 Sunny 78 25.6 48 8.9 35 35 W 3 6 30.03 1017 10 16 0.00 0.00
10:53 am 10:53 Sunny 83 28.3 46 7.8 27 27 NNW 5 7 30.03 1017 10 16 0.00 0.00
11:53 am 11:53 Sunny 86 30 45 7.2 24 24 Calm 30.02 1017 10 16 0.00 0.00
12:53 pm 12:53 Sunny 88 31.1 42 5.6 20 20 undefined N/A 30.01 1016 10 16 0.00 0.00
1:53 pm 13:53 Sunny 89 31.7 40 4.4 18 18 SW 7 11 30.01 1016 10 16 0.00 0.00
2:53 pm 14:53 Sunny 92 33.3 40 4.4 16 16 SE 8 13 29.99 1016 10 16 0.00 0.00
3:53 pm 15:53 Sunny 92 33.3 34 1.1 13 13 VRB 5 7 29.98 1015 10 16 0.00 0.00
4:53 pm 16:53 Sunny 92 33.3 34 1.1 13 13 Calm 29.96 1015 10 16 0.00 0.00
5:53 pm 17:53 Sunny 93 33.9 37 2.8 14 14 Calm 29.94 1014 10 16 0.00 0.00
6:53 pm 18:53 Sunny 93 33.9 36 2.2 13 13 SE 6 9 29.94 1014 10 16 0.00 0.00
7:53 pm 19:53 Sunny 90 32.2 34 1.1 14 14 SSE 3 6 29.94 1014 10 16 0.00 0.00
8:53 pm 20:53 Clear 82 27.8 49 9.4 32 32 NE 3 6 29.94 1014 10 16 0.00 0.00
9:53 pm 21:53 Clear 78 25.6 47 8.3 33 33 Calm 29.96 1015 10 16 0.00 0.00
10:53 pm 22:53 Clear 75 23.9 50 10 41 41 N 6 9 29.98 1015 10 16 0.00 0.00
11:53 pm 23:53 Clear 72 22.2 50 10 46 46 N 5 7 29.99 1016 10 16 0.00 0.00

Powered by AerisWeather